Regional Weather Roundup
Issued by NWS

Home | Current Version | Previous Version | Graphics & Text | Print | Product List | Glossary Off
Versions: 1 2 3 4 5 6 7 8 9 10 11 12 13 14 15 16 17 18 19 20 21 22 23 24 25 26 27 28 29 30 31 32 33 34 35 36 37 38 39 40 41 42 43 44 45 46 47 48 49 50

000
ASUS43 KTOP 210159
RWRKS

WEATHER ROUNDUP FOR KANSAS
NATIONAL WEATHER SERVICE GOODLAND KS
900 PM CDT MON APR 20 2015

NOTE:  "FAIR" INDICATES FEW OR NO CLOUDS BELOW 12,000 FEET WITH NO
SIGNIFICANT WEATHER AND/OR OBSTRUCTIONS TO VISIBILITY.

KSZ001>006-013>018-027>032-041>047-210300-
NORTHWEST KANSAS

CITY           SKY/WX    TMP DP  RH WIND       PRES   REMARKS
GOODLAND       CLEAR     46  35  65 N6        29.90R
HAYS           CLEAR     50  27  40 N7        29.89R
HILL CITY      CLEAR     48  33  56 N3        29.88R
RUSSELL        CLEAR     52  28  39 NW6       29.87R
$$

KSZ061>065-074>080-084>089-210300-
SOUTHWEST KANSAS

CITY           SKY/WX    TMP DP  RH WIND       PRES   REMARKS
DODGE CITY     CLEAR     52  29  41 S5        29.92R
ELKHART          N/A     55  38  53 SW6         N/A
GARDEN CITY    CLEAR     52  30  43 SW3       29.90R
GREAT BEND     PTCLDY    52  36  54 CALM      29.90R
LIBERAL        CLOUDY    55  28  35 E7        29.94R
$$

KSZ066>073-081>083-090>101-210300-
SOUTHEAST KANSAS

CITY           SKY/WX    TMP DP  RH WIND       PRES   REMARKS
CHANUTE        CLEAR     49  39  68 SW5       29.90S
COFFEYVILLE    CLEAR     52  40  63 CALM      29.92R
HUTCHINSON     PTCLDY    50  36  58 E3        29.90R
MEDICINE LODGE   N/A     55  34  45 SW6       29.92R
NEWTON         MOCLDY    55  34  44 W3        29.92R
PARSONS        CLEAR     49  42  77 CALM      29.93R
WICHITA INTL   PTCLDY    53  35  50 S3        29.90S
WICHITA JABRA  PTCLDY    56  33  42 SW5       29.90R
WINFIELD       PTCLDY    51  43  74 SW3       29.93R
$$

KSZ007>012-019>026-033>040-048>060-102>105-210300-
NORTHEAST KANSAS

CITY           SKY/WX    TMP DP  RH WIND       PRES   REMARKS
CONCORDIA      CLEAR     49  27  42 W5        29.86R
EMPORIA        CLEAR     53  30  41 W5        29.88R
LAWRENCE       PTCLDY    48  31  51 CALM      29.86R
MANHATTAN      CLEAR     52  27  38 W5        29.86R
OLATHE IND     PTCLDY    49  30  48 SW3       29.87R
OLATHE EXE     CLEAR     51  28  41 SW3       29.85S
SALINA         PTCLDY    54  29  38 W6        29.88R
TOPEKA BILLARD MOCLDY    54  28  36 SW6       29.86R
TOPEKA FORBES  PTCLDY    47  31  53 SW7       29.86R
$$



USA.gov is the U.S. government's official web portal to all federal, state and local government web resources and services.